Weather History for PHNY - September, 2013

Change the Weather History Date:

Tuesday, September 10, 2013

  Actual Average Record
Temperature  
Mean Temperature 80 °F -  
Max Temperature 91 °F 83 °F 91 °F (2013)
Min Temperature 70 °F 67 °F 60 °F (1955)
Cooling Degree Days 16    
Growing Degree Days 30 (Base 50)    
Moisture  
Dew Point 66 °F    
Average Humidity 69    
Maximum Humidity 84    
Minimum Humidity 49    
Precipitation  
Precipitation 0.01 in - - ()
Sea Level Pressure  
Sea Level Pressure 30.03 in    
Wind  
Wind Speed 17 mph (NE)    
Max Wind Speed 23 mph    
Max Gust Speed 30 mph    
Visibility 10 miles    
Events Rain    
Averages and records for this station are not official NWS values.
T = Trace of Precipitation, MM = Missing Value Source: NWS Daily Summary

Daily Weather History Graph

Daily Weather History Graph

Search for Another Location

Airport or City:

Trip Planner

Search our weather history database for the weather conditions in past years. The results will help you decide how hot, cold, wet, or windy it might be!

Date:

Astronomy

Sep. 10, 2013 Rise Set
Actual Time 6:13 AM HST 6:34 PM HST
Civil Twilight 5:51 AM HST 6:57 PM HST
Nautical Twilight 5:25 AM HST 7:23 PM HST
Astronomical Twilight 4:59 AM HST 7:49 PM HST
Moon 11:06 AM HST (9/10) 10:34 PM HST (9/10)
Length of Visible Light 13h 05m
Length of Day
12h 20m
Waxing Crescent, 30% of the Moon is Illuminated
Sep 10
Waxing Crescent
Sep 12
First Quarter
Sep 19
Full
Sep 26
Last Quarter
Oct 4
New

Hourly Weather History & Observations

Time (HST) Temp. Heat Index Dew Point Humidity Pressure Visibility Wind Dir Wind Speed Gust Speed Precip Events Conditions
12:56 AM 70.9 °F - 64.9 °F 81% 30.04 in - ENE 16.1 mph 23.0 mph N/A   Clear
1:56 AM 70.9 °F - 65.8 °F 84% 30.03 in 10.0 mi NE 17.3 mph 20.7 mph N/A   Clear
2:56 AM 70.9 °F - 64.9 °F 81% 30.02 in 10.0 mi ENE 15.0 mph - N/A   Clear
3:56 AM 70.9 °F - 63.9 °F 78% 29.99 in 10.0 mi NE 21.9 mph 27.6 mph N/A   Clear
4:56 AM 70.9 °F - 63.0 °F 76% 30.01 in 10.0 mi NE 12.7 mph 25.3 mph N/A   Clear
5:56 AM 70.9 °F - 64.9 °F 81% 30.01 in 10.0 mi ENE 18.4 mph 23.0 mph N/A   Clear
6:56 AM 72.9 °F - 64.9 °F 76% 30.02 in 10.0 mi NE 10.4 mph 23.0 mph N/A   Clear
7:56 AM 77.0 °F - 63.9 °F 64% 30.04 in 10.0 mi East 10.4 mph - N/A   Clear
8:56 AM 79.0 °F - 66.9 °F 66% 30.03 in 7.0 mi NE 23.0 mph 26.5 mph N/A   Clear
9:56 AM 81.9 °F 83.9 °F 65.8 °F 58% 30.04 in 10.0 mi ENE 13.8 mph 25.3 mph N/A   Partly Cloudy
10:56 AM 82.9 °F 85.0 °F 65.8 °F 56% 30.03 in 10.0 mi NE 21.9 mph 29.9 mph N/A   Clear
11:56 AM 86.0 °F 88.8 °F 66.9 °F 53% 30.01 in 10.0 mi NE 19.6 mph 28.8 mph N/A   Clear
12:50 PM 91.4 °F 96.8 °F 69.8 °F 49% 30.08 in 10.0 mi NE 18.4 mph - N/A   Mostly Cloudy
12:56 PM 86.0 °F 88.8 °F 66.9 °F 53% 30.00 in 10.0 mi NE 17.3 mph - N/A   Partly Cloudy
1:56 PM 86.0 °F 88.2 °F 65.8 °F 51% 29.99 in 10.0 mi NE 19.6 mph 25.3 mph N/A   Clear
2:50 PM 87.8 °F 90.4 °F 66.2 °F 49% 30.05 in 10.0 mi NE 21.9 mph - N/A   Mostly Cloudy
2:56 PM 84.9 °F 87.6 °F 66.9 °F 55% 29.97 in 10.0 mi NE 23.0 mph - N/A   Partly Cloudy
3:56 PM 83.8 °F 86.5 °F 66.9 °F 57% 29.96 in 3.0 mi NNE 20.7 mph 26.5 mph N/A   Haze
4:56 PM 78.8 °F - 66.2 °F 65% 30.05 in 10.0 mi NE 18.4 mph 21.9 mph N/A Rain Light Rain
5:41 PM 75.2 °F - 68.0 °F 78% 30.07 in 10.0 mi NE 18.4 mph - 0.00 in   Scattered Clouds
5:56 PM 75.9 °F - 68.0 °F 76% 30.01 in 10.0 mi NE 18.4 mph - 0.00 in   Clear
6:56 PM 73.9 °F - 66.9 °F 79% 30.02 in 10.0 mi NE 18.4 mph - N/A   Clear
7:56 PM 73.9 °F - 66.9 °F 79% 30.02 in 10.0 mi NE 19.6 mph - N/A   Clear
8:56 PM 72.9 °F - 65.8 °F 79% 30.05 in 10.0 mi NE 15.0 mph - N/A   Clear
9:56 PM 72.9 °F - 66.9 °F 82% 30.06 in 10.0 mi NE 13.8 mph - N/A   Clear
10:56 PM 72.9 °F - 66.9 °F 82% 30.05 in 10.0 mi NE 13.8 mph - N/A   Clear
11:56 PM 72.0 °F - 65.8 °F 81% 30.05 in 10.0 mi NE 11.5 mph - N/A   Clear